Flag for Germany Weather past 2 weeks in Hannover, Lower Saxony, Germany

Now
77 °F

Broken clouds.


Feels Like: 79 °F
Forecast: 67 / 90 °F
Wind: 8 mph from East

Location: Hannover

Current Time: Aug 30, 2015 at 2:06:14 PM

Latest Report: Aug 30, 2015 at 1:20 PM


Visibility: N/A

Pressure: 30.04 "Hg

Humidity: 74%

Dew point: 68 °F

Location of HannoverLocation

Historic Weather in Hannover — Graph

°F

Hannover temperature yesterday

Maximum temperature yesterday: 75 °F (at 4:20 PM)
Minimum temperature yesterday: 48 °F (at 6:50 AM)
Average temperature yesterday: 63 °F

Past Weeks' High & Low Weather Summary

 TemperatureHumidityPressure
High81 °F (Aug 15, 2:50 PM)100% (Aug 16, 1:50 AM)30.30 "Hg (Aug 16, 1:50 AM)
Low48 °F (Aug 29, 6:50 AM)30% (Aug 22, 1:20 PM)29.59 "Hg (Aug 24, 6:20 PM)
Average65 °F79%29.97 "Hg
* Reported Aug 15 1:20 PM — Aug 30 1:20 PM, Hannover, Weather by CustomWeather, © 2015

Note: Actual official high and low records may vary slightly from our data, if they occured in-between our weather recording intervals... More about our weather records

Advertising

Hannover weather history for previous 24 hours

 ConditionsComfort  
Time TempWeatherWind HumidityBarometerVisibility
1:20 PM
Sun, Aug 30
77 °FBroken clouds.8 mph74%30.04 "HgN/A
12:20 PM75 °FScattered showers. Broken clouds.8 mph78%30.07 "HgN/A
11:50 AM75 °FScattered showers. Broken clouds.7 mph83%30.07 "HgN/A
11:20 AM72 °FBroken clouds.6 mph88%30.07 "HgN/A
10:50 AM72 °FPartly sunny.3 mph88%30.07 "HgN/A
10:20 AM68 °FScattered clouds.2 mph94%30.09 "HgN/A
9:50 AM66 °FScattered clouds.5 mph100%30.07 "HgN/A
9:20 AM64 °FScattered clouds.8 mph100%30.07 "HgN/A
8:50 AM63 °FThundershowers. Broken clouds.12 mph100%30.09 "HgN/A
8:20 AM61 °FThunderstorms. Mostly cloudy.20 mph100%30.15 "Hg1 mi
7:50 AM61 °FBroken clouds.3 mph100%30.09 "HgN/A
7:20 AM61 °FPassing clouds.2 mph100%30.09 "HgN/A
6:50 AM59 °FFog.5 mph100%30.07 "HgN/A
6:20 AM59 °FFog.3 mph100%30.09 "HgN/A
5:50 AM59 °FPassing clouds.5 mph100%30.09 "HgN/A
5:20 AM61 °FPassing clouds.3 mph94%30.07 "HgN/A
4:50 AM61 °FPassing clouds.3 mph100%30.09 "HgN/A
4:20 AM61 °FPassing clouds.3 mph94%30.09 "HgN/A
3:50 AM61 °FPassing clouds.3 mph94%30.09 "HgN/A
3:20 AM61 °FClear.5 mph94%30.09 "Hg10 mi
2:50 AM61 °FPassing clouds.3 mph94%30.09 "HgN/A
2:20 AM61 °FPassing clouds.5 mph94%30.09 "HgN/A
1:50 AM61 °FPassing clouds.5 mph94%30.12 "HgN/A
1:20 AM63 °FPassing clouds.3 mph88%30.12 "HgN/A
12:50 AM63 °FClear.5 mph88%30.12 "Hg10 mi
12:20 AM63 °FClear.3 mph88%30.12 "Hg10 mi
11:20 PM
Sat, Aug 29
63 °FPassing clouds.3 mph88%30.12 "HgN/A
10:50 PM64 °FPassing clouds.3 mph83%30.12 "HgN/A
10:20 PM64 °FPassing clouds.5 mph83%30.15 "HgN/A
9:50 PM64 °FPassing clouds.3 mph83%30.15 "HgN/A
9:20 PM64 °FPassing clouds.5 mph83%30.15 "HgN/A
8:50 PM66 °FPassing clouds.5 mph78%30.15 "HgN/A
8:20 PM66 °FSunny.5 mph78%30.15 "Hg10 mi
7:50 PM70 °FSunny.2 mph69%30.15 "Hg10 mi
7:20 PM73 °FSunny.2 mph57%30.15 "Hg10 mi
6:50 PM72 °FPassing clouds.6 mph61%30.15 "HgN/A
6:20 PM73 °FPassing clouds.5 mph53%30.15 "HgN/A
5:50 PM73 °FPassing clouds.6 mph53%30.15 "HgN/A
5:20 PM73 °FPassing clouds.6 mph53%30.15 "HgN/A
4:50 PM73 °FPassing clouds.6 mph53%30.18 "HgN/A
4:20 PM75 °FPassing clouds.8 mph54%30.18 "HgN/A
3:50 PM73 °FScattered clouds.6 mph50%30.18 "HgN/A
3:20 PM73 °FScattered clouds.8 mph50%30.18 "HgN/A
2:50 PM73 °FScattered clouds.9 mph50%30.18 "HgN/A
2:20 PM72 °FScattered clouds.9 mph53%30.21 "HgN/A
Weather by CustomWeather, © 2015

See weather overviewHow to use our weather pages